Regional Weather Roundup
Issued by NWS

Home | Current Version | Previous Version | Text Only | Print | Product List | Glossary Off
Versions: 1 2 3 4 5 6 7 8 9 10 11 12 13 14 15 16 17 18 19 20 21 22 23 24 25 26 27 28 29 30 31 32 33 34 35 36 37 38 39 40 41 42 43 44 45 46 47 48 49 50

536
ASUS45 KBOI 232310
RWRID

IDAHO REGIONAL WEATHER ROUNDUP
NATIONAL WEATHER SERVICE BOISE ID
400 PM MST THU NOV 23 2017

NOTE: "FAIR" INDICATES FEW OR NO CLOUDS BELOW 12000 FEET
WITH NO SIGNIFICANT WEATHER AND/OR OBSTRUCTIONS TO VISIBILITY

IDZ012-014-240000-
SOUTHWEST IDAHO


CITY           SKY/WX    TMP DP  RH WIND       PRES   REMARKS
BOISE          CLOUDY    65  45  48 SE10      29.94F
CALDWELL       PTSUNNY   67  52  58 E3        29.92F
MOUNTAIN HOME  CLOUDY    61  50  67 E6        29.96F
$$

IDZ016-017-240000-
SOUTHCENTRAL IDAHO


CITY           SKY/WX    TMP DP  RH WIND       PRES   REMARKS
BURLEY         CLOUDY    62  43  49 S17       30.02F
JEROME         LGT RAIN  58  47  66 S7        30.03F
TWIN FALLS     CLOUDY    60  43  53 S13G22    30.03F
$$

IDZ019>023-240000-
SOUTHEAST IDAHO


CITY           SKY/WX    TMP DP  RH WIND       PRES   REMARKS
IDAHO FALLS    CLOUDY    58  42  55 SW20      30.01F
POCATELLO      CLOUDY    60  41  49 S15       30.05F
REXBURG        CLOUDY    57  40  52 SW21G31   29.99F
$$

IDZ006-010-011-018-031-032-240000-
CENTRAL IDAHO MOUNTAINS


CITY           SKY/WX    TMP DP  RH WIND       PRES   REMARKS
MCCALL         CLOUDY    54  39  57 S20G30    29.94F
HAILEY         PTCLDY    55  39  54 SE7       30.06F
STANLEY          N/A     51  32  48 SW13G21   30.05F
SALMON         CLEAR     44  41  89 CALM      29.87F
CHALLIS        PTCLDY    61  32  33 SW9       29.95S
$$

IDZ002-004-006-007-026-240000-
NORTHERN IDAHO


CITY           SKY/WX    TMP DP  RH WIND       PRES   REMARKS
LEWISTON       CLOUDY    57  53  86 S9        29.77R
LOWELL           N/A     49  49 100 CALM      29.82S
COEUR D`ALENE  RAIN      54  51  90 SW17G30   29.68R FOG
MULLAN PASS    CLOUDY    41  38  89 SW23G39   29.68F
$$




USA.gov is the U.S. government's official web portal to all federal, state and local government web resources and services.